• In Deutschland
  • Länderverzeichnis
  • Für 7 Tage
  • Wassertemperatur
  • Satellitenkarten
  • Wetterkarte
  • Widgets
  • user-avatar
    Anmelden

    Stündliche Wetter Riesa

    Heute, 21 Juli, Samstag

    Zeit Temperatur Niederschläge Wind Luftdruck Luftfeuchtigkeit
    00:00 +19°C° 0 mm 2 m/S 750 mmHg 69%
    01:00 +19°C° 0 mm 2 m/S 749 mmHg 69%
    02:00 +19°C° 0 mm 2 m/S 749 mmHg 70%
    03:00 +18°C° 0 mm 2 m/S 749 mmHg 70%
    04:00 +18°C° 0 mm 2 m/S 749 mmHg 71%
    05:00 +19°C° 0 mm 2 m/S 749 mmHg 69%
    06:00 +21°C° 0 mm 2 m/S 749 mmHg 67%
    07:00 +23°C° 0 mm 2 m/S 749 mmHg 65%
    08:00 +25°C° 0 mm 2 m/S 749 mmHg 59%
    09:00 +26°C° 0 mm 2 m/S 749 mmHg 53%
    10:00 +28°C° 0 mm 2 m/S 749 mmHg 48%
    11:00 +29°C° 0,1 mm 2 m/S 749 mmHg 46%
    12:00 +29°C° 0,1 mm 2 m/S 749 mmHg 44%
    13:00 +30°C° 0,1 mm 2 m/S 749 mmHg 42%
    14:00 +29°C° 0,4 mm 2 m/S 749 mmHg 47%
    15:00 +28°C° 0,4 mm 2 m/S 749 mmHg 52%
    16:00 +27°C° 0,4 mm 2 m/S 749 mmHg 57%
    17:00 +27°C° 0,1 mm 2 m/S 748 mmHg 60%
    18:00 +26°C° 0,1 mm 1 m/S 748 mmHg 64%
    19:00 +25°C° 0,1 mm 1 m/S 748 mmHg 67%
    20:00 +24°C° 0 mm 1 m/S 749 mmHg 68%
    21:00 +23°C° 0 mm 1 m/S 749 mmHg 69%
    22:00 +22°C° 0 mm 1 m/S 749 mmHg 70%
    23:00 +21°C° 0 mm 1 m/S 749 mmHg 70%

    Morgen, 22 Juli, Sonntag

    Zeit Temperatur Niederschläge Wind Luftdruck Luftfeuchtigkeit
    00:00 +21°C° 0 mm 1 m/S 749 mmHg 71%
    01:00 +20°C° 0 mm 1 m/S 749 mmHg 72%
    02:00 +20°C° 0 mm 1 m/S 749 mmHg 72%
    03:00 +20°C° 0 mm 1 m/S 749 mmHg 73%
    04:00 +19°C° 0 mm 1 m/S 749 mmHg 74%
    05:00 +20°C° 0 mm 1 m/S 749 mmHg 72%
    06:00 +21°C° 0 mm 1 m/S 749 mmHg 70%
    07:00 +22°C° 0 mm 1 m/S 749 mmHg 68%
    08:00 +23°C° 0 mm 1 m/S 749 mmHg 63%
    09:00 +25°C° 0 mm 1 m/S 749 mmHg 58%
    10:00 +26°C° 0 mm 1 m/S 750 mmHg 53%
    11:00 +27°C° 0 mm 1 m/S 749 mmHg 49%
    12:00 +28°C° 0 mm 2 m/S 749 mmHg 45%
    13:00 +29°C° 0 mm 2 m/S 749 mmHg 41%
    14:00 +29°C° 0 mm 2 m/S 749 mmHg 40%
    15:00 +29°C° 0 mm 2 m/S 749 mmHg 39%
    16:00 +29°C° 0 mm 2 m/S 749 mmHg 39%
    17:00 +28°C° 0 mm 2 m/S 749 mmHg 43%
    18:00 +27°C° 0 mm 2 m/S 749 mmHg 48%
    19:00 +26°C° 0 mm 1 m/S 749 mmHg 52%
    20:00 +25°C° 0 mm 1 m/S 749 mmHg 54%
    21:00 +23°C° 0 mm 1 m/S 749 mmHg 56%
    22:00 +21°C° 0 mm 1 m/S 749 mmHg 57%
    23:00 +21°C° 0 mm 1 m/S 750 mmHg 59%

    übermorgen, 23 Juli, Montag

    Zeit Temperatur Niederschläge Wind Luftdruck Luftfeuchtigkeit
    00:00 +20°C° 0 mm 1 m/S 750 mmHg 61%
    01:00 +20°C° 0 mm 1 m/S 750 mmHg 62%
    02:00 +19°C° 0 mm 1 m/S 750 mmHg 66%
    03:00 +19°C° 0 mm 1 m/S 750 mmHg 69%
    04:00 +19°C° 0 mm 1 m/S 750 mmHg 73%
    05:00 +19°C° 0 mm 2 m/S 750 mmHg 73%
    06:00 +20°C° 0 mm 2 m/S 750 mmHg 73%
    07:00 +21°C° 0 mm 2 m/S 751 mmHg 73%
    08:00 +23°C° 0 mm 2 m/S 751 mmHg 68%
    09:00 +25°C° 0 mm 3 m/S 751 mmHg 63%
    10:00 +27°C° 0 mm 3 m/S 751 mmHg 58%
    11:00 +27°C° 0,3 mm 3 m/S 751 mmHg 55%
    12:00 +28°C° 0,3 mm 3 m/S 750 mmHg 52%
    13:00 +29°C° 0,3 mm 3 m/S 750 mmHg 50%
    14:00 +29°C° 0,3 mm 3 m/S 750 mmHg 49%
    15:00 +29°C° 0,3 mm 3 m/S 750 mmHg 49%
    16:00 +29°C° 0,3 mm 3 m/S 750 mmHg 49%
    17:00 +28°C° 0,1 mm 2 m/S 750 mmHg 52%
    18:00 +27°C° 0,1 mm 2 m/S 751 mmHg 56%
    19:00 +26°C° 0,1 mm 2 m/S 751 mmHg 59%
    20:00 +25°C° 0 mm 2 m/S 751 mmHg 63%
    21:00 +23°C° 0 mm 2 m/S 751 mmHg 67%
    22:00 +21°C° 0 mm 2 m/S 752 mmHg 70%
    23:00 +21°C° 0 mm 1 m/S 752 mmHg 73%

    24 Juli, Dienstag

    Zeit Temperatur Niederschläge Wind Luftdruck Luftfeuchtigkeit
    00:00 +21°C° 0 mm 1 m/S 752 mmHg 75%
    01:00 +20°C° 0 mm 1 m/S 752 mmHg 78%
    02:00 +20°C° 0 mm 1 m/S 752 mmHg 80%
    03:00 +20°C° 0 mm 1 m/S 752 mmHg 82%
    04:00 +19°C° 0 mm 1 m/S 752 mmHg 85%
    05:00 +20°C° 0 mm 1 m/S 752 mmHg 82%
    06:00 +21°C° 0 mm 1 m/S 752 mmHg 79%
    07:00 +22°C° 0 mm 1 m/S 752 mmHg 75%
    08:00 +24°C° 0 mm 2 m/S 752 mmHg 70%
    09:00 +25°C° 0 mm 2 m/S 752 mmHg 65%
    10:00 +26°C° 0 mm 2 m/S 752 mmHg 60%
    11:00 +27°C° 0 mm 2 m/S 752 mmHg 56%
    12:00 +28°C° 0 mm 2 m/S 751 mmHg 53%
    13:00 +29°C° 0 mm 2 m/S 751 mmHg 49%
    14:00 +29°C° 0 mm 2 m/S 751 mmHg 48%
    15:00 +30°C° 0 mm 2 m/S 751 mmHg 46%
    16:00 +30°C° 0 mm 2 m/S 751 mmHg 45%
    17:00 +29°C° 0 mm 2 m/S 751 mmHg 50%
    18:00 +28°C° 0 mm 2 m/S 751 mmHg 55%
    19:00 +27°C° 0 mm 2 m/S 751 mmHg 60%
    20:00 +26°C° 0 mm 2 m/S 751 mmHg 64%
    21:00 +24°C° 0 mm 2 m/S 751 mmHg 69%
    22:00 +23°C° 0 mm 2 m/S 751 mmHg 74%
    23:00 +22°C° 0 mm 1 m/S 751 mmHg 78%

    25 Juli, Mittwoch

    Zeit Temperatur Niederschläge Wind Luftdruck Luftfeuchtigkeit
    00:00 +22°C° 0 mm 1 m/S 751 mmHg 82%
    01:00 +21°C° 0 mm 1 m/S 751 mmHg 85%
    02:00 +21°C° 0 mm 1 m/S 751 mmHg 87%
    03:00 +20°C° 0 mm 1 m/S 751 mmHg 88%
    04:00 +18°C° 0 mm 0 m/S 751 mmHg 90%
    05:00 +21°C° 0 mm 1 m/S 752 mmHg 85%
    06:00 +22°C° 0 mm 1 m/S 752 mmHg 80%
    07:00 +24°C° 0 mm 1 m/S 752 mmHg 76%
    08:00 +25°C° 0 mm 1 m/S 752 mmHg 70%
    09:00 +26°C° 0 mm 2 m/S 752 mmHg 64%
    10:00 +28°C° 0 mm 2 m/S 752 mmHg 58%
    11:00 +29°C° 0 mm 2 m/S 752 mmHg 54%
    12:00 +30°C° 0 mm 2 m/S 751 mmHg 50%
    13:00 +30°C° 0 mm 2 m/S 751 mmHg 46%
    14:00 +31°C° 0 mm 2 m/S 751 mmHg 45%
    15:00 +31°C° 0 mm 2 m/S 751 mmHg 44%
    16:00 +31°C° 0 mm 3 m/S 751 mmHg 43%
    17:00 +30°C° 0 mm 2 m/S 751 mmHg 48%
    18:00 +29°C° 0 mm 2 m/S 751 mmHg 52%
    19:00 +28°C° 0 mm 2 m/S 751 mmHg 57%
    20:00 +27°C° 0 mm 2 m/S 751 mmHg 60%
    21:00 +25°C° 0 mm 1 m/S 751 mmHg 64%
    22:00 +24°C° 0 mm 1 m/S 751 mmHg 67%
    23:00 +23°C° 0 mm 1 m/S 751 mmHg 70%

    26 Juli, Donnerstag

    Zeit Temperatur Niederschläge Wind Luftdruck Luftfeuchtigkeit
    00:00 +23°C° 0 mm 1 m/S 752 mmHg 72%
    01:00 +22°C° 0 mm 1 m/S 752 mmHg 74%
    02:00 +22°C° 0 mm 1 m/S 752 mmHg 76%
    03:00 +19°C° 0 mm 0 m/S 752 mmHg 78%
    04:00 +19°C° 0 mm 0 m/S 752 mmHg 80%
    05:00 +20°C° 0 mm 0 m/S 752 mmHg 76%
    06:00 +22°C° 0 mm 0 m/S 752 mmHg 72%
    07:00 +23°C° 0 mm 0 m/S 752 mmHg 67%
    08:00 +26°C° 0 mm 1 m/S 752 mmHg 62%
    09:00 +28°C° 0 mm 1 m/S 752 mmHg 57%
    10:00 +29°C° 0 mm 2 m/S 753 mmHg 52%
    11:00 +30°C° 0 mm 2 m/S 752 mmHg 49%
    12:00 +31°C° 0 mm 2 m/S 752 mmHg 46%
    13:00 +31°C° 0 mm 2 m/S 752 mmHg 43%
    14:00 +32°C° 0 mm 2 m/S 752 mmHg 41%
    15:00 +32°C° 0 mm 2 m/S 752 mmHg 40%
    16:00 +32°C° 0 mm 2 m/S 752 mmHg 39%
    17:00 +31°C° 0 mm 2 m/S 752 mmHg 43%
    18:00 +30°C° 0 mm 2 m/S 752 mmHg 47%
    19:00 +29°C° 0 mm 1 m/S 752 mmHg 52%
    20:00 +28°C° 0 mm 1 m/S 752 mmHg 54%
    21:00 +26°C° 0 mm 1 m/S 752 mmHg 57%
    22:00 +25°C° 0 mm 1 m/S 753 mmHg 59%
    23:00 +24°C° 0 mm 1 m/S 753 mmHg 62%
    Mehr zeigen